Location: Newark
(45.2500°N, 7.5833°E)
Time: 14:55:34
(UTC+00:00)

Tiros 1 despin weight - Pass Details

Date: 31 January 2020
Orbit: 594 x 642 km, 48.2° (Epoch: 23 February)

Event Time Altitude Azimuth Distance (km) Brightness Sun altitude
Rises 12:58:29 0° 289° (WNW) 2,880 ? 25.0°
Reaches altitude 10° 13:00:47 10° 289° (WNW) 1,982 ? 24.9°
Maximum altitude 13:05:21 88° 201° (SSW) 629 ? 24.6°
Drops below altitude 10° 13:09:59 10° 112° (ESE) 2,006 ? 24.3°
Sets 13:12:19 0° 112° (ESE) 2,918 ? 24.1°
